Regional Weather Roundup
Issued by NWS

Home | Current Version | Previous Version | Text Only | Print | Product List | Glossary On
Versions: 1 2 3 4 5 6 7 8 9 10 11 12 13 14 15 16 17 18 19 20 21 22 23 24 25 26 27 28 29 30 31 32 33 34 35 36 37 38 39 40 41 42 43 44 45 46 47 48 49 50
000
ASUS43 KLSX 112157
RWRMO

WEATHER SUMMARY FOR MISSOURI
NATIONAL WEATHER SERVICE SPRINGFIELD MO
400 PM CST THU FEB 11 2016

NOTE: "FAIR" INDICATES FEW OR NO CLOUDS BELOW 12,000 FEET WITH NO
       SIGNIFICANT WEATHER AND/OR OBSTRUCTIONS TO VISIBILITY.
       CURRENT SKY AND/OR WEATHER CONDITIONS ARE NOT AVAILABLE FOR
       CHILLICOTHE AND FARMINGTON.

MOZ001>031-035>038-043-044-053-054-112300-
...NORTHERN AND WESTERN MISSOURI...

CITY           SKY/WX    TMP DP  RH WIND       PRES   REMARKS
KANSAS CTY INT PTSUNNY   35  21  56 SE9       30.20S WCI  28
LEE`S SUMMIT   MOSUNNY   35  20  54 SE3       30.21S
ST JOSEPH      CLOUDY    34  19  54 S6        30.21S WCI  29
CHILLICOTHE      N/A     30  15  53 E6        30.24F WCI  24

$$
MOZ066>068-077>081-088>096-101>105-112300-
...SOUTHWEST MISSOURI...

CITY           SKY/WX    TMP DP  RH WIND       PRES   REMARKS
SPRINGFIELD    MOSUNNY   46  18  32 N7        30.17R
JOPLIN         PTSUNNY   47  23  38 NE8       30.18S

$$
MOZ032>034-039>042-045>050-055>058-069>072-112300-
...CENTRAL MISSOURI...

CITY           SKY/WX    TMP DP  RH WIND       PRES   REMARKS
COLUMBIA       NOT AVBL
JEFFERSON CITY CLOUDY    35  20  54 SE9       30.25F WCI  28
SEDALIA        PTSUNNY   37  18  46 E8        30.23F

$$
MOZ051-052-059>065-112300-
...EAST CENTRAL MISSOURI...

CITY           SKY/WX    TMP DP  RH WIND       PRES   REMARKS
ST LOUIS INTL  CLOUDY    30  10  43 NE6       30.29S WCI  24

$$
MOZ072>076-082>087-097>100-106>115-112300-
...SOUTH CENTRAL AND SOUTHEAST MISSOURI...

CITY           SKY/WX    TMP DP  RH WIND       PRES   REMARKS
CAPE GIRARDEAU SUNNY     38  20  48 NE8       30.27R
POPLAR BLUFF   SUNNY     38  21  50 NE9       30.25R
WEST PLAINS    SUNNY     45  17  32 NE5       30.18R

$$


USA.gov is the U.S. government's official web portal to all federal, state and local government web resources and services.